FWO584 Weather Reports


time (UTC)temp
F
wind
direction
speed
knots
gust
knots
rain 1hr
in
rain 24hr
in
rain mn
in
humidity
%
barometer
mb
20260510063905 54 326 0.0 2.6 0.00 0.79 0.04 87 1010.4
20260510063404 54 305 1.7 2.6 0.00 0.79 0.04 88 1010.3
20260510060905 53 78 0.0 0.9 0.00 0.79 0.04 87 1010.2
20260510060404 53 78 0.9 2.6 0.00 0.79 0.04 88 1010.2
20260510053904 51 293 0.0 1.7 0.00 0.79 0.04 88 1010.2
20260510053405 51 294 0.9 2.6 0.00 0.79 0.04 88 1010.2
20260510050904 51 278 0.0 0.0 0.00 0.79 0.04 88 1010.2
20260510050404 52 152 0.0 1.7 0.00 0.79 0.04 88 1010.1
20260510043405 52 1 0.0 0.9 0.00 0.79 0.04 87 1010.4
20260510040905 52 178 0.0 0.9 0.00 0.79 0.04 87 1010.4
20260510040404 52 1 1.7 2.6 0.00 0.79 0.04 87 1010.4
20260510033905 52 175 0.0 0.0 0.00 0.79 0.04 87 1010.5
20260510033404 52 2 0.0 2.6 0.00 0.79 0.04 88 1010.5
20260510030405 52 0 0.0 1.7 0.00 0.79 0.04 87 1010.6
20260510023905 53 215 0.0 0.9 0.00 0.79 0.04 87 1010.7
20260510023405 53 215 0.0 2.6 0.00 0.79 0.04 87 1010.7
20260510020905 54 201 1.7 2.6 0.00 0.79 0.04 87 1010.7
20260510020405 54 182 0.9 2.6 0.00 0.79 0.04 87 1010.7
20260510013904 55 245 2.6 2.6 0.00 0.79 0.04 87 1010.9
20260510013405 55 235 1.7 2.6 0.00 0.79 0.04 87 1010.9
20260510010904 56 207 0.0 1.7 0.00 0.79 0.04 87 1010.9
20260510010404 56 207 0.9 2.6 0.00 0.79 0.04 87 1011.0
20260510003905 56 236 0.0 0.0 0.00 0.79 0.04 87 1011.4
20260510003405 56 236 0.0 2.6 0.00 0.79 0.04 87 1011.6
20260510000905 56 247 0.9 1.7 0.00 0.79 0.04 87 1012.0
20260510000405 56 281 0.0 1.7 0.01 0.79 0.04 87 1012.0
20260509233904 56 297 0.9 1.7 0.01 0.79 0.04 87 1012.3
20260509233403 56 286 0.0 2.6 0.01 0.79 0.04 87 1012.3
20260509230905 56 267 0.0 1.7 0.04 0.79 0.04 87 1012.4
20260509223905 56 277 0.9 2.6 0.04 0.78 0.03 87 1012.5
20260509220905 56 267 0.9 2.6 0.02 0.75 0.00 87 1012.5
20260509220404 56 252 1.7 2.6 0.02 0.75 0.00 87 1012.5
20260509213904 56 297 0.0 0.0 0.03 0.74 0.74 87 1012.3
20260509213405 56 297 0.0 0.0 0.03 0.74 0.74 87 1012.3
20260509210904 56 297 0.0 1.7 0.03 0.73 0.73 87 1012.1
20260509210404 56 297 0.0 1.7 0.03 0.73 0.73 87 1012.1
20260509203904 56 297 0.0 0.9 0.02 0.71 0.71 87 1012.0
20260509203405 56 297 0.0 2.6 0.02 0.71 0.71 87 1012.0
20260509200905 56 280 1.7 5.2 0.02 0.70 0.70 87 1011.6
20260509200404 56 306 1.7 7.0 0.02 0.70 0.70 87 1011.5
20260509193904 56 274 2.6 7.8 0.02 0.69 0.69 87 1010.5
20260509193404 56 306 2.6 7.8 0.02 0.69 0.69 87 1010.4
20260509190405 56 267 4.3 17.4 0.08 0.68 0.68 87 1009.7
20260509183904 56 20 7.0 14.8 0.18 0.66 0.66 87 1008.2
20260509183405 56 10 11.3 17.4 0.19 0.66 0.66 87 1008.1
20260509180405 58 32 6.1 12.2 0.30 0.59 0.59 87 1010.1
20260509173904 58 60 0.9 2.6 0.34 0.49 0.49 86 1011.2
20260509173404 58 90 0.9 5.2 0.35 0.47 0.47 86 1011.3
20260509170904 59 231 2.6 6.1 0.32 0.35 0.35 86 1011.7
20260509170404 59 251 2.6 7.0 0.26 0.30 0.30 86 1011.7
20260509163904 60 305 1.7 2.6 0.15 0.15 0.15 86 1011.5
20260509163404 60 64 0.0 5.2 0.13 0.13 0.13 86 1011.3
20260509160405 60 107 2.6 10.4 0.03 0.03 0.03 85 1010.5
20260509153905 61 75 7.8 11.3 0.00 0.00 0.00 84 1009.7
20260509153404 61 66 7.8 10.4 0.00 0.00 0.00 83 1009.9
20260509150903 63 107 4.3 6.1 0.00 0.00 0.00 79 1011.1
20260509150404 64 117 3.5 5.2 0.00 0.00 0.00 77 1011.2
20260509143404 64 176 2.6 4.3 0.00 0.00 0.00 74 1012.1
20260509140905 64 36 2.6 5.2 0.00 0.00 0.00 73 1011.3
20260509140405 64 24 0.9 10.4 0.00 0.00 0.00 73 1011.3
20260509133904 64 80 6.1 10.4 0.00 0.00 0.00 74 1010.9
20260509133404 64 84 6.1 13.0 0.00 0.00 0.00 74 1011.0
20260509130904 66 65 6.1 10.4 0.00 0.00 0.00 71 1011.6
20260509130405 66 74 7.8 13.0 0.00 0.00 0.00 69 1011.6
20260509123905 66 79 6.1 10.4 0.00 0.00 0.00 70 1012.0
20260509123405 66 91 5.2 10.4 0.00 0.00 0.00 70 1012.0
20260509120905 67 97 4.3 8.7 0.00 0.00 0.00 65 1012.4
20260509120405 67 65 4.3 12.2 0.00 0.00 0.00 66 1012.5
20260509113903 66 69 5.2 8.7 0.00 0.00 0.00 74 1012.7
20260509113405 66 74 2.6 10.4 0.00 0.00 0.00 74 1012.7
20260509110904 65 70 6.1 10.4 0.00 0.00 0.00 74 1012.8
20260509103905 67 77 6.1 10.4 0.00 0.00 0.00 68 1012.8
20260509103405 67 80 6.1 12.2 0.00 0.00 0.00 67 1012.8
20260509100905 67 106 6.1 11.3 0.00 0.00 0.00 73 1013.0
20260509100406 67 91 5.2 11.3 0.00 0.00 0.00 72 1013.0
20260509093904 67 88 7.0 10.4 0.00 0.00 0.00 70 1012.7
20260509093404 66 86 7.0 11.3 0.00 0.00 0.00 70 1012.8
20260509090905 66 90 2.6 8.7 0.00 0.00 0.00 75 1012.4
20260509090404 66 62 5.2 10.4 0.00 0.00 0.00 75 1012.4
20260509083905 64 72 5.2 8.7 0.00 0.00 0.00 79 1012.4
20260509083404 64 41 4.3 7.8 0.00 0.00 0.00 81 1012.5
20260509080905 62 56 3.5 7.0 0.00 0.00 0.00 86 1012.8
20260509080405 62 69 3.5 6.1 0.00 0.00 0.00 86 1012.8
20260509073904 60 101 0.9 1.7 0.00 0.00 0.00 86 1013.1
20260509073404 59 325 0.9 2.6 0.00 0.00 0.00 87 1013.1
20260509070904 57 321 0.9 2.6 0.00 0.00 0.00 87 1013.4
20260509070404 57 296 1.7 2.6 0.00 0.00 0.00 87 1013.3